[[{"header":{"parameterUnit":"m.s-1","parameterCategory":2,"la1":30.2991,"la2":30.254,"lo1":-89.0895,"lo2":-89.0444,"dy":0.0017,"dx":0.0017,"nx":28,"ny":28,"refTime":"2024-06-06T03:00:00:Z","depth":"0","parameterNumber":2,"parameterNumberName":"U-component_of_CURRENTS"},"data":[0,0,0,0,0,0,0,0,0,0,0,0,0,0,0,0,0,0,0,0,0,0,0,0,0,0,0,0,0,0,0,0,0,0,0,0,0,0,0,0,0,0,0,0,0,0,0,0,0,0,0,0,0,0,0,0,0,0,0.4178,0.4178,0,0.4184,0.4184,0.4184,0.415,0.415,0.4149,0.4148,0.4115,0.4114,0.4114,0,0,0,0,0,0,0,0,0,0,0,0,0,0.4156,0.4156,0.4178,0.4178,0.4179,0.4184,0.4184,0.4184,0.415,0.415,0.4149,0.4148,0.4115,0.4114,0.4114,0,0,0,0,0,0,0,0,0,0,0,0,0,0.4161,0.4156,0.4178,0.4165,0.4164,0.4184,0.4184,0.4184,0.4151,0.415,0.4148,0.4148,0.4115,0.4114,0.4114,0.4132,0,0,0.4113,0.4113,0,0,0,0,0,0,0,0,0.4161,0.4162,0.4167,0.4166,0.4165,0.4168,0.4164,0.4165,0.4151,0.4153,0.4148,0.4147,0.4132,0.413,0.4129,0.4131,0.4129,0.4113,0.4113,0.4112,0.4112,0,0,0,0,0,0,0,0.4161,0.4162,0.4177,0.4167,0.4166,0.4165,0.4164,0.4164,0.4145,0.4152,0.4151,0.4156,0.413,0.413,0.4128,0.4129,0.4113,0.4113,0.4112,0.4112,0.4226,0.423,0,0,0,0,0,0,0.4166,0.4161,0.4177,0.4178,0.4164,0.4167,0.4166,0.4166,0.4145,0.4143,0.4157,0.4155,0.4131,0.4129,0.4127,0.42,0.4113,0.4112,0.4112,0.4223,0.4227,0.4231,0,0,0,0,0,0,0.4166,0.4167,0.4177,0.4172,0.4174,0.4168,0.4169,0.4166,0.4173,0.415,0.4146,0.4168,0.413,0.4128,0.4147,0.4196,0.4112,0.4112,0.4219,0.4224,0.4229,0.4311,0,0,0,0,0,0,0.4165,0.4167,0.4172,0.4173,0.4174,0.4198,0.417,0.4167,0.4179,0.4176,0.4158,0.4153,0.4129,0.4148,0.4147,0.4194,0.4111,0.4215,0.4222,0.4227,0.4304,0.4318,0.433,0,0,0,0,0,0.4164,0.4175,0.4172,0.4175,0.418,0.42,0.4201,0.4191,0.4181,0.4192,0.4187,0.4154,0.4187,0.415,0.4148,0.4196,0.4212,0.422,0.4227,0.4299,0.4316,0.433,0,0,0,0,0,0,0.4164,0.4173,0.417,0.4181,0.4195,0.4195,0.4206,0.4204,0.4209,0.4209,0.418,0.4177,0.4222,0.4203,0.4163,0.4253,0.4201,0.4208,0.4257,0.4272,0.4285,0.4327,0.4111,0,0,0,0,0,0.4169,0.4179,0.419,0.42,0.421,0.4212,0.422,0.4221,0.4225,0.4226,0.4215,0.4223,0.4253,0.4254,0.427,0.4302,0.4348,0.4341,0.4354,0.4364,0.4402,0.4551,0.4581,0.4255,0.4255,0.4255,0,0,0.4172,0.4179,0.4184,0.4201,0.4209,0.4238,0.4214,0.4237,0.4267,0.4223,0.4256,0.4266,0.4276,0.4323,0.4342,0.4307,0.4474,0.4374,0.4382,0.4415,0.4562,0.4594,0.4623,0.426,0.4259,0.4258,0,0,0.4186,0.419,0.4207,0.4227,0.4252,0.4263,0.4276,0.429,0.4302,0.4332,0.4334,0.4386,0.4382,0.4428,0.4445,0.4545,0.4546,0.4538,0.4624,0.4767,0.4796,0.4821,0.4883,0.4914,0.4534,0.4535,0.4535,0,0.4191,0.4208,0.4216,0.4245,0.4267,0.4279,0.4313,0.4338,0.4358,0.4397,0.4351,0.4458,0.4448,0.4568,0.4594,0.4577,0.463,0.4553,0.4786,0.4812,0.4837,0.4895,0.4928,0.4539,0.4539,0.4538,0.4538,0,0.4218,0.424,0.4255,0.4295,0.4327,0.4357,0.4398,0.4438,0.4448,0.4481,0.4587,0.4601,0.4671,0.4679,0.4653,0.4835,0.4803,0.4791,0.4743,0.4876,0.4926,0.4959,0.4546,0.4545,0.4543,0.4542,0,0,0.4197,0.4261,0.4265,0.4292,0.4356,0.4379,0.4462,0.4542,0.4619,0.4652,0.4769,0.4825,0.4854,0.4882,0.4888,0.4997,0.5184,0.4964,0.4969,0.502,0.5461,0.5323,0.5344,0.5216,0.5223,0.5229,0.541,0,0.4212,0.4263,0.4303,0.4365,0.4394,0.4457,0.4534,0.4619,0.4687,0.4804,0.4885,0.4986,0.4927,0.4976,0.5085,0.5183,0.5282,0.5133,0.5332,0.5337,0.5196,0.5383,0.5224,0.5365,0.5442,0.5448,0.5452,0,0.4215,0.4251,0.4307,0.44,0.4422,0.4475,0.4615,0.4689,0.4872,0.4938,0.5079,0.5141,0.5322,0.5244,0.5493,0.5402,0.5444,0.5497,0.5505,0.5382,0.5263,0.5256,0.5421,0.5298,0.5502,0.5498,0.5494,0,0.4165,0.4251,0.4291,0.4319,0.4433,0.449,0.4563,0.4729,0.4836,0.505,0.5173,0.5359,0.5487,0.561,0.5679,0.562,0.5936,0.5865,0.5778,0.5764,0.5673,0.564,0.5746,0.6058,0.6058,0.6057,0.6057,0,0.4144,0.4175,0.427,0.4287,0.4368,0.4463,0.4588,0.4703,0.4925,0.5087,0.5242,0.5413,0.5598,0.5766,0.5791,0.5891,0.6029,0.5851,0.5843,0.5687,0.5655,0.5573,0.55,0.6064,0.6062,0.6061,0.606,0,0.4069,0.4129,0.4179,0.4296,0.4337,0.4391,0.4584,0.4694,0.4913,0.5148,0.5236,0.5534,0.5742,0.5869,0.6085,0.6037,0.5973,0.6112,0.5868,0.5827,0.5574,0.551,0.54,0.5237,0.6071,0.607,0.6068,0,0.4028,0.4046,0.4156,0.4189,0.4238,0.4342,0.4428,0.4652,0.4796,0.5196,0.5317,0.5617,0.5782,0.6036,0.6049,0.6107,0.5919,0.5942,0.5801,0.5594,0.552,0.5267,0.5119,0.5704,0.5699,0.5696,0.5693,0,0.3952,0.3995,0.4037,0.4109,0.4183,0.4283,0.4434,0.4551,0.4843,0.5062,0.537,0.555,0.5818,0.5835,0.59,0.5902,0.5665,0.5864,0.5776,0.5363,0.498,0.4805,0.5489,0.5661,0.5665,0.5667,0.5669,0.567,0.3889,0.3899,0.3959,0.4018,0.4103,0.4204,0.4248,0.4436,0.4639,0.4901,0.5198,0.5359,0.5562,0.565,0.5613,0.5482,0.5429,0.5348,0.5324,0.5112,0.4844,0.5403,0.5474,0.5475,0.5477,0.5479,0.548,0,0.3789,0.3817,0.3867,0.3929,0.3969,0.4069,0.4229,0.4251,0.4386,0.4642,0.4842,0.5011,0.5048,0.5151,0.5184,0.5018,0.4766,0.4881,0.4556,0.4466,0.5122,0.4995,0.4813,0.4813,0.4813,0.4813,0.4813,0.4813,0.374,0.3732,0.3756,0.3768,0.3819,0.3836,0.389,0.3939,0.4072,0.4159,0.4235,0.439,0.4723,0.4894,0.48,0.4678,0.4335,0.4134,0.4084,0.4634,0.4676,0.4716,0.4583,0.4317,0.4316,0.3263,0.3256,0.325]},{"header":{"parameterUnit":"m.s-1","parameterCategory":2,"la1":30.2991,"la2":30.254,"lo1":-89.0895,"lo2":-89.0444,"dy":0.0017,"dx":0.0017,"nx":28,"ny":28,"refTime":"2024-06-06T03:00:00:Z","depth":"0","parameterNumber":3,"parameterNumberName":"V-component_of_CURRENTS"},"data":[0,0,0,0,0,0,0,0,0,0,0,0,0,0,0,0,0,0,0,0,0,0,0,0,0,0,0,0,0,0,0,0,0,0,0,0,0,0,0,0,0,0,0,0,0,0,0,0,0,0,0,0,0,0,0,0,0,0,0.0135,0.0135,0,0.0046,0.0045,0.0044,-0.0021,-0.0021,-0.0022,-0.0022,-0.015,-0.0153,-0.0156,0,0,0,0,0,0,0,0,0,0,0,0,0,0.0176,0.0176,0.0135,0.0134,0.0134,0.0047,0.0045,0.0044,-0.0021,-0.0021,-0.0022,-0.0022,-0.0149,-0.0152,-0.0156,0,0,0,0,0,0,0,0,0,0,0,0,0,0.0128,0.0176,0.0136,0.0093,0.0088,0.0047,0.0045,0.0043,-0.0021,-0.0021,-0.0022,-0.0022,-0.0148,-0.0152,-0.0157,-0.0175,0,0,-0.0171,-0.0173,0,0,0,0,0,0,0,0,0.0131,0.0126,0.01,0.0096,0.009,0.0025,0.0013,-0.0031,-0.0021,0.0018,-0.0022,-0.0022,-0.0093,-0.0102,-0.012,-0.0181,-0.0187,-0.0171,-0.0174,-0.0176,-0.0177,0,0,0,0,0,0,0,0.0135,0.0129,0.0098,0.0099,0.0093,0.0053,0.0046,0.0004,-0.0036,0.0015,0.001,0.0004,-0.0096,-0.0116,-0.0124,-0.0189,-0.0171,-0.0175,-0.0178,-0.018,-0.0279,-0.0279,0,0,0,0,0,0,0.0155,0.0133,0.0101,0.0095,0.0113,0.0053,0.0045,0.0045,-0.0035,-0.0047,0.0005,0.0002,-0.0108,-0.0119,-0.0129,-0.0138,-0.0176,-0.018,-0.0183,-0.0279,-0.0279,-0.0279,0,0,0,0,0,0,0.0156,0.0153,0.0104,0.0113,0.0105,0.0054,0.0053,0.0043,0.0028,-0.0041,-0.0055,0.0001,-0.0108,-0.0122,-0.0158,-0.0144,-0.0182,-0.0187,-0.028,-0.0279,-0.0279,-0.0169,0,0,0,0,0,0,0.0158,0.0154,0.016,0.0115,0.0105,0.0092,0.0054,0.0042,0.0026,0.0021,-0.0049,-0.0062,-0.011,-0.0151,-0.0163,-0.0151,-0.019,-0.028,-0.0279,-0.0279,-0.0172,-0.0165,-0.0158,0,0,0,0,0,0.016,0.0175,0.0161,0.0157,0.0115,0.0093,0.0084,0.0044,0.0027,0.0026,-0.0021,-0.006,-0.0158,-0.0154,-0.0168,-0.0158,-0.028,-0.028,-0.0279,-0.0176,-0.0166,-0.0158,0,0,0,0,0,0,0.0194,0.0169,0.0152,0.0159,0.0133,0.0083,0.008,0.0054,0.0015,0.0011,-0.0056,-0.0072,-0.01,-0.0146,-0.014,-0.0188,-0.0226,-0.0229,-0.0143,-0.0135,-0.0127,-0.0088,-0.0194,0,0,0,0,0,0.0207,0.0213,0.0178,0.0183,0.0175,0.013,0.0115,0.0091,0.0052,0.0035,-0.0013,-0.0066,-0.0111,-0.0134,-0.0181,-0.0203,-0.0225,-0.0209,-0.0202,-0.0195,-0.0174,-0.0195,-0.0187,-0.0278,-0.0278,-0.0278,0,0,0.0221,0.0209,0.0211,0.0191,0.0167,0.0169,0.012,0.0109,0.0112,0.0027,0.0016,-0.0042,-0.0112,-0.0138,-0.0155,-0.0172,-0.018,-0.0195,-0.0188,-0.017,-0.0194,-0.0184,-0.0176,-0.0278,-0.0278,-0.0278,0,0,0.026,0.0244,0.0264,0.025,0.0228,0.0202,0.0206,0.0165,0.0149,0.0126,0.0068,0.0024,-0.0044,-0.0087,-0.0119,-0.0101,-0.0142,-0.0122,-0.0051,-0.0071,-0.0063,-0.0056,-0.0062,-0.0057,-0.0117,-0.0117,-0.0117,0,0.028,0.03,0.0265,0.028,0.0282,0.0226,0.0251,0.0224,0.0178,0.0176,0.0137,0.0048,-0.0018,-0.0041,-0.004,-0.0082,-0.0092,-0.0074,-0.0058,-0.0052,-0.0047,-0.0055,-0.005,-0.0112,-0.0112,-0.0113,-0.0113,0,0.0332,0.0348,0.036,0.0365,0.0359,0.037,0.0338,0.0332,0.0301,0.0272,0.0243,0.0153,0.0104,0.0068,0.0017,0.002,0.0002,-0.0044,-0.007,-0.003,-0.0042,-0.0039,-0.0104,-0.0106,-0.0108,-0.0109,0,0,0.0387,0.0397,0.0405,0.0429,0.0409,0.0418,0.0427,0.0426,0.0452,0.0382,0.041,0.0303,0.0255,0.0216,0.0142,0.0117,0.0131,0.0064,0.006,0.0078,0.0109,0.0066,0.0064,0.0096,0.0096,0.0097,0.009,0,0.0444,0.0502,0.0486,0.0545,0.0574,0.0539,0.056,0.055,0.0525,0.0537,0.0445,0.0432,0.0311,0.03,0.025,0.0173,0.0143,0.0139,0.005,0.0048,0.0021,0.0067,0.011,0.0105,0.0093,0.0093,0.0093,0,0.051,0.0542,0.0612,0.0656,0.0667,0.0694,0.0735,0.0746,0.0734,0.0717,0.0674,0.0606,0.0556,0.045,0.0332,0.0341,0.0236,0.0163,0.0159,0.0087,0.0011,0.0058,0.011,-0.0142,0.0097,0.0097,0.0097,0,0.0586,0.0637,0.0704,0.0715,0.0748,0.0786,0.0806,0.0809,0.0855,0.0848,0.0891,0.0781,0.0776,0.0621,0.0441,0.0401,0.0326,0.0244,0.0104,0.0101,0.0103,0.0097,-0.0081,0.0163,0.0163,0.0163,0.0163,0,0.0662,0.0715,0.0752,0.0791,0.0891,0.0879,0.0981,0.0983,0.1026,0.1127,0.0999,0.1068,0.0824,0.0739,0.053,0.0344,0.0385,0.0141,0.0101,0.014,0.0138,-0.0111,-0.0254,0.0163,0.0163,0.0163,0.0163,0,0.0734,0.0753,0.0837,0.0898,0.0933,0.1006,0.1111,0.1183,0.121,0.1348,0.1367,0.1313,0.1211,0.0947,0.0729,0.0495,0.0159,0.0209,0.0277,0.0244,-0.0152,-0.0288,-0.0497,-0.0613,0.0061,0.006,0.0059,0,0.0774,0.0827,0.0927,0.0997,0.1034,0.1142,0.1226,0.1274,0.1376,0.1522,0.1616,0.1565,0.1577,0.1219,0.0795,0.0429,0.0166,0.0197,0.0099,-0.015,-0.0331,-0.0443,-0.0534,0.0153,0.0153,0.0153,0.0153,0,0.0856,0.0891,0.0962,0.1106,0.1214,0.1342,0.1479,0.1596,0.1704,0.1859,0.2056,0.2091,0.1751,0.1411,0.0862,0.0585,0.0022,0.0183,-0.0084,-0.0276,-0.0395,-0.0532,0.0132,0.0153,0.0153,0.0153,0.0153,0.0153,0.092,0.0985,0.1088,0.1227,0.1357,0.1543,0.1689,0.1876,0.2113,0.2384,0.238,0.2502,0.1965,0.1236,0.0801,0.0028,-0.0003,-0.021,-0.035,-0.0437,-0.0574,0.0088,0.0055,0.0054,0.0054,0.0053,0.0053,0,0.0995,0.1074,0.1204,0.138,0.154,0.1597,0.1859,0.2045,0.2381,0.2627,0.2813,0.2638,0.196,0.1229,0.0193,-0.0385,-0.06,-0.0703,-0.0849,-0.0916,-0.0317,-0.0342,-0.045,-0.045,-0.0449,-0.0449,-0.0449,-0.0449,0.104,0.1169,0.1234,0.1508,0.1643,0.1895,0.2065,0.2376,0.2613,0.2954,0.3062,0.3074,0.2545,0.0691,-0.0596,-0.0905,-0.1297,-0.1389,-0.1617,-0.1217,-0.1182,-0.1149,-0.1207,-0.1495,-0.1496,-0.2128,-0.2134,-0.2139]}],[{"header":{"parameterUnit":"m.s-1","parameterCategory":2,"la1":30.2991,"la2":30.254,"lo1":-89.0895,"lo2":-89.0444,"dy":0.0017,"dx":0.0017,"nx":28,"ny":28,"refTime":"2024-06-06T03:00:00:Z","depth":"2","parameterNumber":2,"parameterNumberName":"U-component_of_CURRENTS"},"data":[0,0,0,0,0,0,0,0,0,0,0,0,0,0,0,0,0,0,0,0,0,0,0,0,0,0,0,0,0,0,0,0,0,0,0,0,0,0,0,0,0,0,0,0,0,0,0,0,0,0,0,0,0,0,0,0,0,0,0.3615,0.3615,0,0.364,0.364,0.364,0.3632,0.3632,0.3631,0.3631,0.362,0.362,0.362,0,0,0,0,0,0,0,0,0,0,0,0,0,0.3564,0.3565,0.3615,0.3615,0.3616,0.364,0.364,0.364,0.3632,0.3632,0.3631,0.3631,0.362,0.362,0.362,0,0,0,0,0,0,0,0,0,0,0,0,0,0.3585,0.3565,0.3615,0.3616,0.3617,0.364,0.364,0.364,0.3632,0.3632,0.3631,0.3631,0.362,0.362,0.362,0.3629,0,0,0.3619,0.3619,0,0,0,0,0,0,0,0,0.3584,0.3587,0.3616,0.3616,0.3617,0.3635,0.3619,0.3636,0.3632,0.3624,0.3631,0.363,0.3623,0.3623,0.3626,0.3629,0.3628,0.3619,0.3619,0.3619,0.3619,0,0,0,0,0,0,0,0.3583,0.3586,0.3622,0.3616,0.3617,0.3618,0.362,0.3622,0.3623,0.3624,0.3624,0.3632,0.3623,0.3626,0.3625,0.3628,0.3619,0.3619,0.3619,0.3619,0.3711,0.3713,0,0,0,0,0,0,0.3585,0.3584,0.3621,0.3623,0.3602,0.362,0.3622,0.3627,0.3624,0.3624,0.3632,0.3631,0.3626,0.3625,0.3625,0.3693,0.3619,0.3619,0.3619,0.3708,0.3711,0.3714,0,0,0,0,0,0,0.3584,0.3588,0.362,0.3606,0.3611,0.3621,0.3627,0.3628,0.3646,0.3631,0.3629,0.3651,0.3626,0.3625,0.365,0.369,0.3619,0.3619,0.3705,0.3709,0.3712,0.3792,0,0,0,0,0,0,0.3582,0.3587,0.3597,0.3607,0.3612,0.3646,0.3628,0.3629,0.3652,0.3651,0.3646,0.3644,0.3625,0.365,0.365,0.3688,0.3619,0.3702,0.3707,0.3711,0.3786,0.3798,0.3807,0,0,0,0,0,0.358,0.3594,0.3597,0.3602,0.3623,0.3648,0.3651,0.3654,0.3653,0.3667,0.3671,0.3645,0.3679,0.3652,0.3651,0.3691,0.37,0.3706,0.3711,0.3781,0.3795,0.3807,0,0,0,0,0,0,0.3574,0.3595,0.3599,0.3617,0.3638,0.3647,0.3663,0.3669,0.3683,0.3687,0.3668,0.3667,0.371,0.3692,0.3663,0.3734,0.3688,0.3694,0.3742,0.3755,0.3766,0.3786,0.3619,0,0,0,0,0,0.358,0.3596,0.3616,0.3633,0.3646,0.366,0.3673,0.368,0.3693,0.37,0.3698,0.3707,0.3731,0.3735,0.3747,0.3777,0.3799,0.3806,0.3817,0.3826,0.3845,0.3923,0.3942,0.3732,0.3732,0.3731,0,0,0.3582,0.3596,0.3605,0.3634,0.3649,0.3679,0.3666,0.3696,0.3727,0.3696,0.3737,0.3746,0.375,0.3791,0.3808,0.3779,0.39,0.3833,0.3841,0.3855,0.3931,0.3951,0.3969,0.3735,0.3735,0.3734,0,0,0.3595,0.361,0.363,0.3654,0.3688,0.3702,0.3718,0.3743,0.3762,0.3798,0.38,0.384,0.3847,0.3876,0.3886,0.3966,0.3959,0.3966,0.4028,0.4104,0.4122,0.4138,0.4197,0.4218,0.3964,0.3965,0.3965,0,0.3598,0.3622,0.3641,0.367,0.3694,0.3718,0.3751,0.378,0.3812,0.3843,0.3819,0.3893,0.3894,0.3971,0.4002,0.3992,0.4026,0.3974,0.4118,0.4134,0.415,0.4206,0.4228,0.3969,0.3968,0.3968,0.3968,0,0.3624,0.3651,0.3668,0.3713,0.3745,0.3777,0.3822,0.3863,0.3885,0.3914,0.3991,0.4003,0.405,0.4061,0.4053,0.4168,0.4156,0.4127,0.4083,0.4176,0.423,0.4251,0.3975,0.3974,0.3972,0.3971,0,0,0.3603,0.3672,0.3677,0.3702,0.377,0.3793,0.3869,0.3938,0.3994,0.4033,0.4108,0.4162,0.4182,0.42,0.4207,0.4267,0.4404,0.4247,0.4249,0.4303,0.4572,0.4487,0.4501,0.44,0.4405,0.4408,0.4568,0,0.3615,0.3665,0.3706,0.3762,0.379,0.3852,0.3917,0.399,0.4048,0.413,0.4185,0.4255,0.4232,0.4266,0.4332,0.4395,0.4464,0.4363,0.4477,0.4481,0.4391,0.4524,0.4149,0.4254,0.4588,0.4592,0.4594,0,0.3616,0.3651,0.3703,0.3781,0.3802,0.3851,0.3959,0.4024,0.4158,0.4208,0.4303,0.4347,0.4474,0.4422,0.4589,0.4528,0.4568,0.4598,0.4604,0.4513,0.4436,0.4216,0.428,0.463,0.4627,0.4624,0.4622,0,0.3563,0.3643,0.3681,0.3707,0.3807,0.3857,0.3923,0.4049,0.4124,0.4278,0.4355,0.4481,0.4571,0.4648,0.4726,0.4675,0.4893,0.4822,0.4783,0.4776,0.4474,0.4434,0.4944,0.4944,0.4944,0.4943,0.4943,0,0.3539,0.3568,0.3662,0.3678,0.3742,0.383,0.3922,0.4013,0.4167,0.4267,0.4399,0.4501,0.4636,0.4764,0.4795,0.4876,0.4959,0.4836,0.483,0.4491,0.4453,0.4779,0.4758,0.4949,0.4948,0.4947,0.4946,0,0.3466,0.3527,0.3572,0.3677,0.3714,0.3761,0.3912,0.3977,0.4146,0.4291,0.4353,0.4574,0.4741,0.4855,0.5005,0.4972,0.5041,0.5038,0.4632,0.4575,0.4852,0.4834,0.5017,0.5016,0.5015,0.5014,0.5013,0,0.3427,0.3445,0.3546,0.3574,0.3623,0.3712,0.377,0.3941,0.4025,0.4312,0.4374,0.4616,0.4741,0.4953,0.495,0.5015,0.5074,0.4677,0.4507,0.4894,0.487,0.4852,0.4835,0.414,0.4132,0.4126,0.412,0,0.3354,0.3398,0.3435,0.349,0.3547,0.3607,0.3716,0.3774,0.3985,0.4128,0.4323,0.4462,0.4696,0.4606,0.4713,0.4681,0.4634,0.4549,0.5089,0.4179,0.4079,0.4051,0.4061,0.4063,0.4069,0.4073,0.4076,0.4078,0.3297,0.3301,0.335,0.3391,0.3444,0.3469,0.3467,0.3592,0.3698,0.3857,0.4108,0.4196,0.4302,0.428,0.4175,0.4093,0.4408,0.4182,0.4197,0.4219,0.4089,0.3993,0.3936,0.394,0.3945,0.3948,0.3952,0,0.3197,0.3216,0.3246,0.3267,0.3248,0.3338,0.3393,0.3354,0.3387,0.3588,0.3727,0.3532,0.3525,0.3617,0.3422,0.3444,0.3352,0.3282,0.3113,0.3177,0.3232,0.3043,0.2617,0.2612,0.2607,0.2603,0,0,0.3148,0.3118,0.3126,0.3053,0.3071,0.2988,0.2976,0.2955,0.3023,0.3028,0.3064,0.3381,0.354,0.3027,0.2979,0.2754,0.2923,0.2643,0.3731,0.3599,0.3646,0.3794,0.3582,0,0,0,0,0]},{"header":{"parameterUnit":"m.s-1","parameterCategory":2,"la1":30.2991,"la2":30.254,"lo1":-89.0895,"lo2":-89.0444,"dy":0.0017,"dx":0.0017,"nx":28,"ny":28,"refTime":"2024-06-06T03:00:00:Z","depth":"2","parameterNumber":3,"parameterNumberName":"V-component_of_CURRENTS"},"data":[0,0,0,0,0,0,0,0,0,0,0,0,0,0,0,0,0,0,0,0,0,0,0,0,0,0,0,0,0,0,0,0,0,0,0,0,0,0,0,0,0,0,0,0,0,0,0,0,0,0,0,0,0,0,0,0,0,0,0.0127,0.0127,0,0.0046,0.0045,0.0044,-0.0013,-0.0013,-0.0014,-0.0014,-0.0118,-0.012,-0.0123,0,0,0,0,0,0,0,0,0,0,0,0,0,0.0163,0.0163,0.0127,0.0127,0.0126,0.0046,0.0045,0.0043,-0.0013,-0.0013,-0.0014,-0.0014,-0.0117,-0.012,-0.0123,0,0,0,0,0,0,0,0,0,0,0,0,0,0.0119,0.0163,0.0127,0.009,0.0086,0.0046,0.0045,0.0043,-0.0013,-0.0013,-0.0014,-0.0014,-0.0116,-0.012,-0.0123,-0.014,0,0,-0.0135,-0.0137,0,0,0,0,0,0,0,0,0.0122,0.0118,0.0096,0.0092,0.0088,0.0028,0.0019,-0.0019,-0.0013,0.0022,-0.0014,-0.0014,-0.0069,-0.0077,-0.0095,-0.0145,-0.015,-0.0135,-0.0138,-0.0139,-0.014,0,0,0,0,0,0,0,0.0125,0.0121,0.0093,0.0095,0.009,0.0053,0.0046,0.0011,-0.0023,0.0019,0.0015,0.001,-0.0072,-0.0091,-0.0097,-0.0151,-0.0135,-0.0139,-0.0141,-0.0143,-0.0217,-0.0216,0,0,0,0,0,0,0.0144,0.0124,0.0095,0.009,0.0107,0.0053,0.0046,0.0046,-0.0022,-0.0032,0.001,0.0008,-0.0084,-0.0093,-0.0101,-0.0104,-0.0139,-0.0143,-0.0145,-0.0217,-0.0216,-0.0216,0,0,0,0,0,0,0.0145,0.0142,0.0099,0.0107,0.0099,0.0053,0.0053,0.0044,0.0031,-0.0028,-0.0039,0.0007,-0.0085,-0.0096,-0.0123,-0.0109,-0.0145,-0.0148,-0.0217,-0.0217,-0.0216,-0.0123,0,0,0,0,0,0,0.0147,0.0144,0.0149,0.0108,0.0099,0.0088,0.0054,0.0043,0.0029,0.0025,-0.0034,-0.0045,-0.0086,-0.0116,-0.0126,-0.0115,-0.0151,-0.0218,-0.0217,-0.0216,-0.0127,-0.012,-0.0113,0,0,0,0,0,0.0148,0.0162,0.015,0.0147,0.0109,0.0089,0.0081,0.0045,0.003,0.003,-0.001,-0.0043,-0.012,-0.0119,-0.0131,-0.012,-0.0218,-0.0217,-0.0216,-0.013,-0.0121,-0.0114,0,0,0,0,0,0,0.0178,0.0157,0.0143,0.0148,0.0126,0.008,0.0077,0.0054,0.0022,0.0019,-0.0038,-0.0051,-0.0072,-0.0109,-0.0106,-0.0141,-0.0175,-0.0176,-0.0105,-0.0097,-0.0091,-0.0057,-0.0154,0,0,0,0,0,0.019,0.0196,0.0165,0.017,0.0163,0.0122,0.0109,0.0088,0.0055,0.004,-0.0,-0.0044,-0.0079,-0.0096,-0.0136,-0.0151,-0.0181,-0.0153,-0.0146,-0.014,-0.0122,-0.0157,-0.0151,-0.0214,-0.0214,-0.0214,0,0,0.0203,0.0192,0.0195,0.0177,0.0155,0.0158,0.0113,0.0104,0.0108,0.0034,0.0026,-0.0023,-0.0079,-0.0098,-0.011,-0.0125,-0.014,-0.0139,-0.0134,-0.0118,-0.0155,-0.0149,-0.0144,-0.0213,-0.0213,-0.0213,0,0,0.0238,0.0224,0.0242,0.023,0.021,0.0187,0.0191,0.0154,0.014,0.0123,0.0073,0.004,-0.0018,-0.005,-0.0075,-0.0055,-0.0106,-0.0074,-0.001,-0.0043,-0.0038,-0.0034,-0.0064,-0.0063,-0.0067,-0.0067,-0.0067,0,0.0255,0.0274,0.0243,0.0256,0.0258,0.0209,0.0231,0.0209,0.0169,0.0167,0.0134,0.006,0.0008,-0.0006,-0.0003,-0.0037,-0.0065,-0.0033,-0.0033,-0.0029,-0.0026,-0.0058,-0.0058,-0.0062,-0.0063,-0.0063,-0.0064,0,0.0301,0.0316,0.0326,0.0332,0.0328,0.0338,0.0311,0.0306,0.028,0.0253,0.023,0.0156,0.0117,0.0089,0.0047,0.0045,0.0015,-0.0021,-0.0046,-0.0014,-0.005,-0.0052,-0.0056,-0.0058,-0.0059,-0.006,0,0,0.0349,0.0359,0.0366,0.0389,0.0373,0.0382,0.0392,0.0393,0.0415,0.0354,0.0374,0.0293,0.025,0.0219,0.0158,0.0126,0.0112,0.007,0.0066,0.0053,0.0042,0.0008,0.0002,0.0075,0.0075,0.0076,0.0009,0,0.0399,0.0451,0.0439,0.0493,0.052,0.0491,0.0513,0.0504,0.0481,0.0485,0.0408,0.0394,0.03,0.029,0.0239,0.0149,0.0112,0.0134,0.0002,-0.0001,-0.0026,0.0,0.0037,-0.0019,0.0007,0.0007,0.0007,0,0.0456,0.0486,0.055,0.0593,0.0604,0.063,0.0668,0.068,0.0663,0.0645,0.0605,0.054,0.0485,0.0402,0.0264,0.0282,0.0176,0.0096,0.009,0.0029,-0.0038,-0.005,-0.0024,0.0003,0.0003,0.0004,0.0004,0,0.0523,0.0571,0.0632,0.0643,0.0676,0.0712,0.0733,0.0735,0.0775,0.0757,0.0781,0.0676,0.0653,0.0502,0.0321,0.0297,0.0169,0.0111,-0.0021,-0.0025,-0.0033,-0.0038,0.0019,0.0019,0.002,0.002,0.002,0,0.059,0.0638,0.0675,0.071,0.0803,0.0795,0.0887,0.089,0.092,0.0995,0.0877,0.0909,0.0679,0.057,0.0378,0.0181,0.0206,0.0004,-0.0039,-0.0001,-0.0002,-0.0017,-0.0021,0.0017,0.0018,0.0018,0.0019,0,0.0652,0.067,0.0748,0.0807,0.084,0.0908,0.1004,0.1069,0.1081,0.1179,0.1187,0.1096,0.0955,0.0711,0.0476,0.0279,0.0079,-0.0001,0.006,0.0025,-0.0109,-0.0107,-0.015,-0.0152,-0.0153,-0.0154,-0.0155,0,0.0687,0.0736,0.0831,0.0895,0.093,0.103,0.111,0.1152,0.1236,0.1306,0.1372,0.1267,0.122,0.0845,0.0481,0.0144,0.0091,-0.0055,-0.0103,-0.0086,-0.0124,-0.012,-0.0116,-0.0079,-0.008,-0.008,-0.008,0,0.0761,0.0793,0.086,0.0993,0.1093,0.1212,0.1333,0.1429,0.1504,0.1593,0.1682,0.1651,0.13,0.0954,0.0473,0.0245,-0.0006,-0.0072,-0.0055,-0.0044,-0.0025,-0.0061,-0.0058,-0.0082,-0.0082,-0.0082,-0.0082,-0.0082,0.082,0.0879,0.0973,0.1101,0.1223,0.1386,0.1504,0.1644,0.181,0.1951,0.1906,0.1864,0.1462,0.0849,0.0425,-0.0027,-0.0,-0.0164,-0.016,-0.0157,-0.0139,-0.0124,-0.0195,-0.0196,-0.0196,-0.0196,-0.0197,0,0.0889,0.0958,0.1076,0.1232,0.1375,0.1435,0.165,0.1773,0.1987,0.2093,0.2158,0.1787,0.1391,0.0918,0.0247,-0.0146,-0.0169,-0.027,-0.0217,-0.021,-0.0206,-0.019,-0.026,-0.0262,-0.0264,-0.0265,0,0,0.0929,0.1044,0.11,0.1336,0.1456,0.1666,0.18,0.1986,0.2109,0.2218,0.2192,0.2108,0.1538,0.1039,0.0503,0.0111,0.0044,0.0043,0.0142,0.0277,0.0286,-0.0092,-0.0053,0,0,0,0,0]}],[{"header":{"parameterUnit":"m.s-1","parameterCategory":2,"la1":30.2991,"la2":30.254,"lo1":-89.0895,"lo2":-89.0444,"dy":0.0017,"dx":0.0017,"nx":28,"ny":28,"refTime":"2024-06-06T03:00:00:Z","depth":"4","parameterNumber":2,"parameterNumberName":"U-component_of_CURRENTS"},"data":[0,0,0,0,0,0,0,0,0,0,0,0,0,0,0,0,0,0,0,0,0,0,0,0,0,0,0,0,0,0,0,0,0,0,0,0,0,0,0,0,0,0,0,0,0,0,0,0,0,0,0,0,0,0,0,0,0,0,0.2429,0.243,0,0.2513,0.2514,0.2515,0.2588,0.2589,0.259,0.2591,0.2679,0.268,0.2682,0,0,0,0,0,0,0,0,0,0,0,0,0,0.2318,0.232,0.2429,0.243,0.2431,0.2513,0.2514,0.2515,0.2587,0.2589,0.259,0.2591,0.2679,0.268,0.2682,0,0,0,0,0,0,0,0,0,0,0,0,0,0.2379,0.232,0.2428,0.2479,0.2484,0.2513,0.2514,0.2515,0.2587,0.2589,0.259,0.2592,0.2678,0.268,0.2682,0.2666,0,0,0.2689,0.269,0,0,0,0,0,0,0,0,0.2375,0.2383,0.247,0.2475,0.2481,0.2543,0.2508,0.2566,0.2587,0.2546,0.2591,0.2592,0.2634,0.264,0.265,0.267,0.2674,0.2689,0.269,0.2691,0.2692,0,0,0,0,0,0,0,0.2371,0.2379,0.246,0.2471,0.2478,0.2493,0.2503,0.2519,0.2579,0.255,0.2556,0.2568,0.2637,0.2647,0.2652,0.2675,0.2689,0.2691,0.2692,0.2693,0.2828,0.2831,0,0,0,0,0,0,0.2364,0.2375,0.2458,0.2463,0.2433,0.2494,0.2505,0.252,0.2579,0.259,0.2566,0.2571,0.2643,0.265,0.2656,0.2774,0.2691,0.2693,0.2694,0.2826,0.2829,0.2831,0,0,0,0,0,0,0.2361,0.237,0.2454,0.2422,0.2434,0.2495,0.2511,0.2521,0.2585,0.2592,0.2603,0.2626,0.2645,0.2653,0.2722,0.2773,0.2694,0.2696,0.2823,0.2827,0.283,0.2923,0,0,0,0,0,0,0.2358,0.2369,0.2402,0.2422,0.2436,0.2503,0.251,0.2522,0.2588,0.2596,0.2646,0.2652,0.2646,0.2719,0.2724,0.2774,0.2698,0.282,0.2825,0.2829,0.2917,0.2929,0.294,0,0,0,0,0,0.2353,0.2382,0.2403,0.2414,0.2471,0.2505,0.2515,0.256,0.259,0.2623,0.2666,0.2654,0.275,0.2722,0.2728,0.278,0.2818,0.2824,0.2829,0.2912,0.2927,0.294,0,0,0,0,0,0,0.2353,0.2393,0.2416,0.2458,0.2496,0.2519,0.2562,0.259,0.2649,0.2676,0.2683,0.2692,0.2772,0.2763,0.2733,0.2832,0.2782,0.2789,0.2844,0.2858,0.2869,0.2872,0.27,0,0,0,0,0,0.2366,0.2405,0.2437,0.2479,0.2502,0.2543,0.2574,0.2606,0.2647,0.2678,0.2713,0.2752,0.2786,0.2815,0.284,0.2893,0.2899,0.293,0.2942,0.2951,0.2959,0.3011,0.3028,0.2848,0.2848,0.2848,0,0,0.2379,0.2408,0.2433,0.2483,0.252,0.2559,0.2567,0.263,0.2679,0.2676,0.2771,0.2797,0.2811,0.2875,0.2909,0.2882,0.3011,0.2958,0.2966,0.2968,0.3019,0.3036,0.3052,0.2852,0.2851,0.2851,0,0,0.2405,0.2452,0.2488,0.2523,0.2587,0.2609,0.264,0.2695,0.2744,0.2818,0.2837,0.2898,0.295,0.2972,0.2986,0.3074,0.307,0.309,0.3151,0.3203,0.3218,0.3231,0.3281,0.3298,0.3094,0.3095,0.3095,0,0.2425,0.2467,0.2505,0.2546,0.2584,0.2638,0.2682,0.2733,0.281,0.2854,0.2865,0.2971,0.2991,0.3061,0.31,0.31,0.3131,0.3097,0.3218,0.3231,0.3243,0.329,0.3308,0.31,0.3099,0.3099,0.3098,0,0.2456,0.2512,0.2539,0.2607,0.2654,0.2706,0.2767,0.2838,0.2902,0.2944,0.3049,0.3081,0.3143,0.3162,0.3162,0.3262,0.3259,0.3227,0.3181,0.3267,0.3311,0.3328,0.3107,0.3105,0.3104,0.3102,0,0,0.2437,0.2541,0.2557,0.2598,0.2694,0.2726,0.2825,0.2909,0.298,0.3064,0.315,0.3225,0.326,0.3279,0.3296,0.3343,0.3464,0.3336,0.3337,0.3382,0.3597,0.3371,0.3367,0.3464,0.3467,0.3469,0.3601,0,0.2455,0.253,0.2585,0.2671,0.2711,0.2797,0.2875,0.2966,0.3051,0.3149,0.3213,0.33,0.33,0.335,0.3404,0.3453,0.351,0.3432,0.351,0.3512,0.3297,0.3378,0.3479,0.3613,0.3616,0.3619,0.3621,0,0.2453,0.2507,0.2591,0.2697,0.2726,0.2798,0.293,0.301,0.3152,0.322,0.3324,0.338,0.3497,0.3467,0.3606,0.3565,0.36,0.362,0.3624,0.3387,0.3314,0.3506,0.365,0.3648,0.3646,0.3644,0.3642,0,0.2388,0.2505,0.2574,0.2612,0.2743,0.2818,0.2904,0.3044,0.3123,0.3288,0.3365,0.3488,0.358,0.3644,0.3718,0.3684,0.3846,0.379,0.3617,0.3603,0.3726,0.371,0.3877,0.3877,0.3877,0.3877,0.3876,0,0.2348,0.2409,0.2562,0.2596,0.2691,0.2802,0.2921,0.3023,0.3178,0.3265,0.3413,0.3487,0.3635,0.374,0.3769,0.3751,0.3897,0.3641,0.3619,0.3765,0.3752,0.3739,0.3721,0.3882,0.388,0.388,0.3879,0,0.2256,0.2358,0.2444,0.2604,0.2663,0.2738,0.2924,0.299,0.3169,0.3292,0.3356,0.3544,0.3666,0.3784,0.39,0.3799,0.3808,0.3766,0.3949,0.3934,0.3519,0.3505,0.3564,0.3557,0.3551,0.3546,0.3542,0,0.2207,0.2248,0.2431,0.2485,0.2571,0.2704,0.2777,0.2965,0.3031,0.3285,0.3314,0.352,0.362,0.3618,0.3742,0.3785,0.3738,0.3717,0.3573,0.3513,0.3488,0.3483,0.3477,0.3533,0.3531,0.353,0.3528,0,0.2112,0.2207,0.2278,0.2391,0.2489,0.2568,0.2699,0.2727,0.2931,0.3129,0.32,0.3266,0.3399,0.3471,0.3547,0.3559,0.3705,0.3654,0.3664,0.3529,0.3476,0.3456,0.3457,0.3508,0.3511,0.3513,0.3514,0,0.2051,0.2076,0.2186,0.2264,0.237,0.2388,0.2481,0.2558,0.2652,0.2925,0.2943,0.3163,0.3362,0.3357,0.3418,0.3424,0.3352,0.3217,0.3248,0.3272,0.3111,0.2997,0.2874,0,0,0,0,0,0.1968,0.1976,0.2041,0.2102,0.2193,0.2254,0.2395,0.2488,0.2692,0.2668,0.2798,0.2904,0.2988,0.3097,0.3044,0.3279,0.3363,0.3199,0.3223,0.3395,0.3418,0.3252,0,0,0,0,0,0,0.191,0.1969,0.1984,0.1943,0.1952,0.2023,0.2103,0.2246,0.2244,0.2475,0.2542,0.2724,0.2858,0.3002,0.2991,0.3024,0.2976,0.3342,0.3334,0.3381,0.3403,0.3422,0.3259,0,0,0,0,0]},{"header":{"parameterUnit":"m.s-1","parameterCategory":2,"la1":30.2991,"la2":30.254,"lo1":-89.0895,"lo2":-89.0444,"dy":0.0017,"dx":0.0017,"nx":28,"ny":28,"refTime":"2024-06-06T03:00:00:Z","depth":"4","parameterNumber":3,"parameterNumberName":"V-component_of_CURRENTS"},"data":[0,0,0,0,0,0,0,0,0,0,0,0,0,0,0,0,0,0,0,0,0,0,0,0,0,0,0,0,0,0,0,0,0,0,0,0,0,0,0,0,0,0,0,0,0,0,0,0,0,0,0,0,0,0,0,0,0,0,0.0113,0.0113,0,0.0057,0.0056,0.0055,0.0016,0.0016,0.0016,0.0016,-0.0057,-0.0059,-0.0061,0,0,0,0,0,0,0,0,0,0,0,0,0,0.0135,0.0135,0.0113,0.0113,0.0112,0.0057,0.0056,0.0055,0.0016,0.0016,0.0016,0.0016,-0.0057,-0.0059,-0.0061,0,0,0,0,0,0,0,0,0,0,0,0,0,0.0105,0.0135,0.0113,0.0087,0.0085,0.0057,0.0056,0.0055,0.0016,0.0016,0.0016,0.0016,-0.0056,-0.0059,-0.0061,-0.0075,0,0,-0.007,-0.0071,0,0,0,0,0,0,0,0,0.0107,0.0104,0.0092,0.0089,0.0086,0.0045,0.0037,0.0011,0.0016,0.004,0.0016,0.0015,-0.0023,-0.0029,-0.0041,-0.0078,-0.0081,-0.007,-0.0072,-0.0073,-0.0074,0,0,0,0,0,0,0,0.0109,0.0106,0.0089,0.0091,0.0088,0.0061,0.0057,0.0032,0.0008,0.0038,0.0035,0.0032,-0.0025,-0.0039,-0.0043,-0.0082,-0.007,-0.0072,-0.0074,-0.0075,-0.0125,-0.0125,0,0,0,0,0,0,0.0123,0.0108,0.0091,0.0087,0.0099,0.0061,0.0056,0.0057,0.0009,0.0002,0.0033,0.0031,-0.0034,-0.004,-0.0046,-0.0044,-0.0073,-0.0075,-0.0077,-0.0126,-0.0125,-0.0125,0,0,0,0,0,0,0.0124,0.0122,0.0093,0.0098,0.0092,0.0062,0.0062,0.0056,0.0048,0.0005,-0.0002,0.0032,-0.0034,-0.0042,-0.006,-0.0048,-0.0077,-0.0079,-0.0126,-0.0126,-0.0125,-0.0053,0,0,0,0,0,0,0.0125,0.0123,0.0129,0.0099,0.0093,0.0086,0.0062,0.0055,0.0047,0.0044,0.0002,-0.0005,-0.0035,-0.0055,-0.0062,-0.0052,-0.0081,-0.0126,-0.0126,-0.0125,-0.0056,-0.0051,-0.0046,0,0,0,0,0,0.0126,0.0136,0.0129,0.0127,0.0102,0.0087,0.0082,0.0057,0.0047,0.0048,0.0021,-0.0004,-0.0057,-0.0057,-0.0065,-0.0056,-0.0127,-0.0126,-0.0125,-0.0059,-0.0052,-0.0046,0,0,0,0,0,0,0.0146,0.0132,0.0124,0.0129,0.0115,0.0082,0.0081,0.0065,0.0043,0.0042,0.0001,-0.0008,-0.0021,-0.0048,-0.0048,-0.007,-0.0096,-0.0097,-0.0043,-0.0037,-0.0031,-0.0005,-0.0084,0,0,0,0,0,0.0156,0.0162,0.014,0.0146,0.0141,0.0113,0.0104,0.009,0.0067,0.0057,0.0028,-0.0002,-0.0027,-0.0037,-0.0066,-0.0075,-0.0105,-0.0076,-0.007,-0.0066,-0.005,-0.0087,-0.0083,-0.0123,-0.0123,-0.0123,0,0,0.0166,0.0159,0.0162,0.0151,0.0137,0.014,0.0107,0.0102,0.0107,0.0053,0.0051,0.0014,-0.0026,-0.0037,-0.0045,-0.0056,-0.0072,-0.0065,-0.006,-0.0047,-0.0085,-0.0081,-0.0078,-0.0122,-0.0122,-0.0122,0,0,0.0192,0.0184,0.0198,0.0191,0.0179,0.0163,0.0167,0.0141,0.0132,0.0123,0.0086,0.0064,0.0024,0.0002,-0.0016,0.0002,-0.0045,-0.0013,0.0038,0.0003,0.0006,0.0009,-0.003,-0.0031,-0.0007,-0.0007,-0.0007,0,0.0205,0.0221,0.0199,0.021,0.0215,0.018,0.0199,0.0184,0.0157,0.0158,0.0133,0.0082,0.0045,0.0037,0.0042,0.0016,-0.0016,0.002,0.0011,0.0013,0.0015,-0.0026,-0.0028,-0.0004,-0.0004,-0.0004,-0.0005,0,0.0239,0.0254,0.0261,0.0269,0.0269,0.0278,0.0261,0.0261,0.0244,0.0226,0.0212,0.0159,0.0132,0.0111,0.0082,0.0077,0.0047,0.002,-0.0,0.0023,-0.0021,-0.0025,0.0001,0.0,-0.0001,-0.0002,0,0,0.0271,0.0284,0.029,0.0312,0.0304,0.0313,0.0326,0.0331,0.0351,0.0307,0.0324,0.0269,0.0237,0.0215,0.017,0.0139,0.0114,0.0091,0.0087,0.0061,0.0031,0.0011,0.0004,0.0083,0.0083,0.0083,-0.0005,0,0.0308,0.035,0.0345,0.0393,0.0415,0.0399,0.0421,0.0419,0.0405,0.0409,0.0352,0.0345,0.0277,0.0271,0.0226,0.0146,0.0108,0.014,0.0006,0.0002,-0.0012,0.0001,0.0082,-0.0009,-0.001,-0.001,-0.0011,0,0.0347,0.0373,0.0427,0.047,0.0481,0.0507,0.0545,0.0559,0.0548,0.0537,0.0507,0.0457,0.0412,0.0351,0.0223,0.0245,0.015,0.0078,0.0072,0.003,-0.0024,-0.0038,-0.0019,-0.0018,-0.0017,-0.0017,-0.0016,0,0.039,0.0435,0.0488,0.05,0.0536,0.0572,0.0596,0.0604,0.0639,0.0626,0.0642,0.0558,0.0535,0.0406,0.0249,0.0237,0.0101,0.0063,-0.0047,-0.0051,-0.0038,-0.004,-0.0025,-0.0025,-0.0025,-0.0025,-0.0024,0,0.0432,0.0475,0.052,0.055,0.0633,0.0636,0.0718,0.0726,0.0754,0.0807,0.072,0.073,0.0548,0.0443,0.0284,0.011,0.0122,-0.003,-0.007,-0.0008,-0.0006,-0.0042,-0.0043,-0.0028,-0.0027,-0.0027,-0.0026,0,0.0467,0.0491,0.0561,0.0623,0.0658,0.072,0.0814,0.0865,0.088,0.0947,0.0954,0.0866,0.0725,0.0528,0.0317,0.0172,-0.0002,-0.0071,0.0017,-0.0018,-0.0142,-0.0138,-0.0196,-0.0197,-0.0198,-0.0199,-0.02,0,0.0486,0.0526,0.0624,0.0683,0.072,0.0814,0.0885,0.0931,0.0991,0.103,0.1066,0.096,0.0871,0.0565,0.0337,0.0031,-0.0021,-0.012,-0.0137,-0.0124,-0.0157,-0.0151,-0.0146,-0.0202,-0.0202,-0.0203,-0.0203,0,0.0526,0.0565,0.0624,0.0744,0.0836,0.0942,0.1044,0.1099,0.1159,0.1174,0.1165,0.1008,0.0845,0.0579,0.0339,0.0116,-0.006,-0.0133,-0.0133,-0.015,-0.0132,-0.0162,-0.0156,-0.0207,-0.0206,-0.0206,-0.0206,0,0.0562,0.061,0.0695,0.0802,0.0921,0.1038,0.1088,0.116,0.1221,0.1254,0.1245,0.1068,0.0961,0.0623,0.0406,0.0181,0.0112,0.0024,0.0015,0.0016,0.0092,0.0146,0.0134,0,0,0,0,0,0.059,0.0646,0.0745,0.0865,0.0983,0.106,0.1183,0.122,0.1279,0.1286,0.1272,0.1119,0.0803,0.0663,0.0436,0.0358,0.0057,0.0081,-0.0053,-0.0228,-0.0224,-0.0174,0,0,0,0,0,0,0.0611,0.0699,0.0744,0.0901,0.0991,0.1133,0.1216,0.1257,0.1257,0.1275,0.1111,0.1044,0.0732,0.0935,0.0428,0.036,0.0238,-0.0063,-0.0069,-0.0231,-0.0227,-0.0223,-0.0171,0,0,0,0,0]}]]